SCP
-0 0 0 0 0 0 0 0 0 0 0 0 0 0 0 1 1 3 5 6 8 9 11 11 11 11 12 14 15 15 13 11 10 9 8 7 7 8 9 11 14 14 15 16
0 0 0 0 0 0 0 0 0 0 0 0 0 0 0 1 1 2 4 6 8 9 9 10 11 10 11 13 13 12 11 10 9 9 8 7 7 7 8 10 13 14 15 16
0 0 0 0 0 0 0 0 0 0 0 0 0 0 0 1 2 3 4 6 7 7 8 8 9 9 9 10 10 9 8 8 8 8 8 7 7 7 8 10 12 13 13 13
0 0 0 0 0 0 0 0 0 0 0 0 0 0 0 1 2 3 4 4 5 5 6 6 6 5 6 6 7 7 7 7 8 8 8 8 7 7 8 10 11 11 10 9
0 0 0 0 0 0 0 0 0 0 0 0 0 0 0 1 2 3 3 3 2 3 4 4 3 3 3 3 4 4 5 6 7 7 7 7 7 8 8 9 9 9 8 7
0 0 0 0 0 0 0 0 0 0 0 0 0 0 1 1 2 2 2 2 1 1 2 2 2 2 2 1 2 2 3 4 5 6 6 7 7 7 7 8 8 9 8 8
0 0 0 0 0 0 0 0 0 0 0 0 0 0 1 1 1 2 2 1 1 1 1 1 1 1 1 1 1 2 2 3 3 4 5 5 6 6 6 7 8 8 9 9
0 0 0 0 0 0 0 0 0 0 0 0 0 0 1 1 1 1 1 1 1 1 1 1 1 1 1 1 1 2 2 3 3 3 4 4 5 5 5 6 7 8 9 9
0 0 0 0 0 0 0 0 0 0 0 0 0 0 1 1 1 1 1 1 1 1 1 1 1 1 1 1 2 2 3 3 3 3 3 4 4 4 5 6 7 7 8 8
0 0 0 0 0 0 0 0 0 0 0 0 0 0 1 1 1 1 1 1 1 1 1 1 1 1 1 2 2 2 3 3 4 4 3 3 3 4 4 5 6 6 6 6
0 0 0 0 0 0 0 0 0 0 0 0 0 0 0 1 1 1 0 1 1 1 1 1 1 1 2 2 2 3 3 3 3 3 3 3 3 3 3 4 4 5 5 5
0 0 0 0 0 0 0 0 0 0 0 0 0 0 0 0 1 0 0 0 1 1 1 1 1 2 2 2 3 3 3 3 3 3 3 3 3 2 2 2 3 3 3 3
0 0 0 0 0 0 0 0 0 0 0 0 0 0 0 0 1 1 1 1 1 1 1 1 2 2 2 2 3 3 3 2 2 2 3 3 2 2 2 2 1 1 1 2
0 0 0 0 0 0 0 0 0 0 0 0 0 0 0 1 1 1 1 1 1 1 1 2 2 2 2 2 3 3 3 2 2 2 2 2 2 2 1 1 1 1 1 1
0 0 0 0 0 0 0 0 0 0 0 0 0 0 0 0 1 1 1 1 1 1 1 2 2 2 2 2 2 3 3 2 2 2 1 1 1 1 1 1 1 0 0 0
0 0 0 0 0 0 0 0 0 0 0 0 0 0 0 1 1 1 1 1 1 1 1 1 2 2 2 2 2 3 3 3 2 1 1 1 1 1 1 1 1 0 0 0
0 0 0 0 0 0 0 0 0 0 0 0 1 1 1 1 1 1 1 1 1 1 1 1 2 2 2 3 3 3 3 3 2 1 1 1 1 1 1 1 1 0 0 0
0 0 0 0 0 0 0 0 0 0 0 1 1 1 1 1 1 1 1 1 1 1 1 1 2 2 2 3 3 3 3 2 2 1 1 1 1 1 1 1 0 0 0 0
0 0 0 0 0 0 0 0 0 0 1 1 1 1 1 1 1 1 1 1 1 1 1 2 2 2 3 3 3 3 3 2 2 1 1 1 1 1 1 0 0 0 0 0
0 0 0 0 0 0 0 0 0 1 1 1 1 1 1 1 1 1 1 1 1 1 2 2 2 3 4 4 4 3 3 2 2 1 1 1 1 1 1 0 0 0 0 0
0 1 1 1 1 0 0 0 0 1 1 1 1 1 1 1 1 1 1 1 1 2 2 2 2 4 5 5 5 4 3 2 2 1 1 1 1 1 1 1 0 0 0 0
1 1 1 1 1 1 0 0 0 1 1 1 1 1 1 1 1 1 1 1 1 1 1 2 2 3 4 5 5 4 3 2 2 2 2 1 1 1 1 1 1 0 0 0
1 1 1 1 1 0 0 0 0 0 0 0 0 0 0 0 0 1 1 1 1 1 1 1 2 2 3 4 5 4 3 3 2 2 2 2 1 1 1 1 1 0 0 0
1 1 1 1 1 0 0 0 0 0 0 0 0 0 0 0 0 0 0 1 1 1 1 1 1 2 3 3 4 4 4 3 2 2 2 2 1 1 1 1 1 0 0 0
0 0 0 0 0 0 0 0 0 0 0 0 0 0 0 0 0 0 0 0 0 1 1 1 1 1 2 3 3 3 4 3 2 2 2 2 1 1 1 1 1 0 0 0
0 0 0 0 0 0 0 0 0 0 0 0 0 0 0 0 0 0 0 0 0 0 0 1 1 1 2 2 2 3 3 3 3 2 2 1 1 1 1 1 0 0 0 0
Wind_Speed
9 10 9 5 6 10 12 13 13 11 5 4 8 13 14 7 2 1 3 6 7 8 9 8 7 6 6 5 3 1 1 3 3 4 5 6 7 6 5 5 6 6 5 6
8 9 4 7 7 8 9 10 11 11 5 5 9 14 14 10 7 3 2 3 4 6 6 6 6 7 7 7 6 5 3 3 4 4 4 5 5 5 6 5 5 6 6 6
9 3 4 6 7 9 9 9 9 11 11 11 14 17 17 15 10 8 6 4 5 5 5 5 4 5 6 6 6 5 5 5 5 5 4 5 5 5 6 6 5 6 7 7
8 3 3 8 10 8 9 10 11 11 12 13 16 16 14 9 11 10 7 6 6 6 5 4 4 4 4 5 5 4 5 5 5 5 5 6 6 7 7 5 5 5 6 7
7 4 6 9 9 7 9 11 11 14 15 17 17 17 15 8 5 9 9 6 5 3 3 3 3 3 4 4 4 4 4 5 5 5 6 6 7 6 6 5 6 5 5 7
9 5 6 8 7 5 7 10 14 16 14 17 12 12 10 4 9 13 10 7 5 2 1 1 1 1 2 3 3 3 3 4 4 5 6 6 7 8 8 8 6 5 4 4
8 7 5 4 7 5 6 8 8 9 7 6 3 6 7 6 9 10 8 5 3 0 2 2 2 3 3 3 3 3 4 4 4 5 6 6 6 7 8 7 6 5 4 4
7 5 3 2 4 4 6 8 7 9 11 12 10 9 0 10 9 7 5 2 2 4 3 3 4 4 4 5 4 4 5 4 5 5 5 5 6 5 5 5 5 4 3 3
6 5 4 6 6 7 7 7 9 9 13 15 11 7 8 6 4 3 4 5 5 5 4 5 6 5 4 5 5 5 5 4 5 5 5 4 4 4 4 5 4 3 2 2
7 10 10 7 7 9 10 9 7 7 9 12 13 11 3 4 5 5 5 5 5 5 6 5 4 3 3 3 4 4 4 4 4 5 5 4 4 3 3 3 3 2 2 2
9 10 12 9 9 11 8 9 8 8 8 11 13 11 8 4 1 4 7 8 7 7 7 5 4 3 3 4 4 3 3 3 3 4 4 4 3 3 3 2 3 3 4 4
10 9 10 13 13 11 8 8 9 9 10 11 13 14 9 4 4 6 8 8 8 8 7 6 4 3 4 4 4 4 3 3 3 3 2 2 2 2 2 3 4 4 4 4
8 7 10 10 6 4 7 9 11 11 10 12 14 12 7 5 8 8 7 7 7 7 6 5 3 3 3 4 4 4 3 3 2 2 2 1 1 2 2 3 3 3 3 4
4 8 11 14 14 15 15 15 15 14 12 14 16 18 15 13 11 9 8 7 8 7 6 4 3 3 2 3 3 4 4 2 2 1 1 0 0 1 1 2 3 3 2 3
4 8 11 15 17 19 20 19 18 16 16 16 17 16 14 12 12 11 10 9 10 9 8 5 3 2 3 3 3 4 4 3 3 2 2 2 2 2 2 3 2 2 1 2
5 9 13 16 18 19 20 18 16 13 12 12 14 14 15 15 14 13 13 13 13 11 10 7 4 2 3 4 4 4 4 4 4 4 3 3 4 4 4 4 3 2 1 1
9 11 14 15 17 18 15 10 7 7 11 13 13 15 17 16 17 16 14 14 13 11 9 7 5 3 3 5 5 5 5 5 5 5 5 5 5 6 6 6 5 4 2 2
7 7 7 13 15 16 9 10 9 7 13 17 16 18 19 19 18 16 15 14 15 13 11 8 6 4 4 5 5 6 6 6 6 6 6 6 7 7 7 6 5 5 4 3
4 4 7 10 13 13 9 12 10 7 8 19 18 19 21 21 20 15 18 19 16 14 11 8 7 7 5 5 6 7 7 7 7 6 6 7 8 9 9 8 7 5 5 4
7 7 7 10 14 14 10 16 13 9 2 19 20 20 21 21 16 15 21 23 20 16 11 9 8 7 6 6 6 7 8 8 8 6 6 7 8 9 10 9 7 6 5 5
7 8 11 12 13 4 13 15 13 7 11 19 19 20 20 17 16 19 22 22 21 19 16 12 9 7 5 5 7 8 9 8 7 6 5 7 8 9 10 9 7 7 7 6
10 10 10 9 10 4 18 13 10 9 13 15 17 18 18 19 20 22 22 22 21 21 20 17 12 8 6 6 7 9 10 8 7 6 6 7 8 10 10 10 9 8 8 7
6 8 5 6 7 8 13 11 9 11 12 14 16 17 18 20 20 21 21 21 20 20 19 18 16 13 9 6 7 10 9 8 7 7 6 7 9 8 9 11 11 9 8 8
9 12 6 5 9 7 10 11 10 11 12 14 15 17 17 18 20 20 19 18 18 18 18 16 17 16 14 10 7 9 8 8 8 8 7 7 8 9 10 9 9 9 10 9
10 11 8 6 8 9 9 13 13 14 14 16 17 17 18 19 20 20 18 17 16 16 16 15 15 15 16 14 11 9 9 9 10 9 8 9 9 9 9 9 8 9 8 8
7 8 7 5 6 8 11 12 15 16 17 19 20 20 20 19 20 20 18 16 16 17 16 16 16 15 14 15 12 10 9 9 10 10 9 9 9 8 8 9 7 4 4 8
Wind_Direction
218 238 257 296 328 330 325 317 319 314 355 356 304 291 287 285 261 258 28 50 55 53 48 34 24 11 12 17 7 328 255 255 247 240 235 234 237 240 243 241 238 228 221 213
234 247 293 356 334 305 288 288 288 285 296 294 282 279 277 269 250 207 132 100 86 78 66 52 34 19 14 8 3 355 337 302 276 260 259 257 262 262 253 249 243 228 218 214
278 41 11 295 277 276 282 287 304 322 327 305 286 272 262 242 215 174 164 140 112 98 78 57 44 28 8 3 355 352 348 331 316 301 284 277 272 263 261 252 239 229 224 218
279 275 283 286 284 288 297 328 333 317 304 293 291 291 286 260 190 167 137 116 98 89 80 59 40 27 3 352 345 349 345 336 328 317 301 289 276 270 268 268 258 245 230 226
284 281 273 272 286 304 307 319 307 291 283 279 275 275 277 274 172 128 110 117 102 83 77 53 25 17 353 337 335 335 340 335 329 320 307 296 290 284 285 281 271 257 242 233
286 287 270 283 299 295 293 292 284 268 261 264 287 307 296 23 110 125 141 151 151 153 90 74 352 336 311 307 311 315 320 318 317 312 309 304 299 297 295 289 278 263 244 235
290 278 257 250 277 286 291 301 300 303 287 282 352 282 276 110 123 136 148 159 162 205 293 290 301 293 285 289 307 314 310 313 318 315 313 311 308 300 293 293 287 279 262 244
293 299 283 280 311 312 293 287 295 314 316 318 300 271 263 120 113 116 129 176 246 267 274 294 293 291 305 319 336 331 326 323 323 319 315 312 311 304 307 313 308 297 285 270
302 304 285 275 287 291 290 289 309 302 292 292 296 320 87 88 110 164 197 222 248 264 280 294 296 306 321 331 337 328 323 326 326 322 316 313 317 317 316 315 314 315 319 300
285 297 294 267 246 248 251 278 286 284 298 302 305 320 44 167 217 233 248 264 275 288 290 293 304 315 330 327 318 315 323 329 336 329 325 324 331 331 326 327 343 355 360 2
306 294 291 284 262 271 259 263 287 300 295 300 302 305 323 323 308 308 306 301 295 293 297 308 322 332 332 324 319 325 326 332 336 332 330 322 325 346 360 20 34 39 34 28
311 305 304 295 285 282 279 288 290 283 289 293 292 294 314 6 339 302 296 301 311 309 301 298 307 324 327 321 312 311 309 312 313 319 326 337 5 30 42 50 47 43 45 38
347 328 304 296 300 283 282 273 266 263 264 269 277 285 301 310 303 309 318 328 328 317 306 295 288 290 301 303 304 299 286 284 294 308 319 28 62 57 52 57 57 45 41 36
274 275 281 291 300 305 292 284 282 282 281 284 287 296 309 317 323 330 335 334 321 314 312 294 254 234 248 273 283 284 275 265 251 278 290 224 94 73 74 81 74 59 47 42
255 280 287 293 299 299 297 294 291 287 286 289 298 306 326 344 346 345 341 332 319 312 305 294 266 218 216 241 249 254 252 235 228 244 244 208 169 150 133 121 108 82 55 73
296 289 292 288 290 291 290 288 287 291 303 316 326 336 354 355 355 351 345 333 321 313 307 306 305 268 230 232 242 245 237 225 214 227 230 200 182 181 167 160 155 146 117 89
287 297 297 292 298 297 292 304 317 327 348 353 349 353 357 358 357 351 341 332 327 325 323 319 311 285 231 222 221 226 235 224 214 221 220 202 190 189 179 177 167 165 164 153
254 286 287 284 289 284 300 5 2 7 31 17 9 3 359 351 343 332 338 353 347 333 322 316 306 285 248 221 205 208 224 224 222 220 217 201 194 191 183 182 177 169 168 159
165 244 278 285 287 292 335 28 14 352 42 27 7 356 350 343 332 329 348 345 334 325 316 304 287 271 246 222 210 211 220 225 227 224 215 201 194 189 185 183 178 171 166 160
178 204 248 275 288 297 6 7 351 315 304 20 1 354 349 347 336 332 337 331 327 320 310 302 291 279 253 222 207 214 224 226 229 226 213 195 189 188 186 181 177 169 164 167
232 230 244 262 269 289 19 9 357 345 346 355 354 352 349 343 330 326 331 332 330 328 323 313 303 282 257 227 205 212 227 229 225 219 204 185 185 186 182 174 172 168 170 171
291 289 291 297 295 8 15 34 37 357 346 349 349 347 341 334 330 330 330 329 329 329 328 326 317 304 275 239 215 213 222 224 218 210 198 183 183 186 179 171 172 174 173 169
360 355 334 20 63 76 47 47 23 359 349 344 339 336 332 327 325 325 324 324 325 326 327 330 328 319 301 265 232 224 219 212 213 205 195 184 185 188 171 172 175 175 176 175
25 0 354 69 69 49 45 22 4 351 338 330 326 322 320 316 314 313 314 316 318 320 321 324 325 323 317 307 269 236 220 208 206 204 192 181 182 181 175 176 177 178 181 184
7 358 351 25 14 348 357 350 338 329 323 317 314 311 308 306 307 309 309 309 311 313 315 318 318 319 315 308 296 261 225 207 206 202 191 186 185 181 178 181 181 186 187 191
24 18 7 355 345 315 309 312 310 306 302 301 301 301 301 302 303 304 305 306 306 306 309 310 311 312 315 314 302 292 255 211 202 202 194 188 184 180 178 171 154 77 146 156